OneWeb SL0113

operational
NORAD ID: 48050 Int'l Des: 2021-025 Owner: ONEWEBN Country: UK Constellation: oneweb
LEOCIRCULARPOLARONEWEB_TYPE

Über OneWeb SL0113

Beschreibung wird geladen...

Live-Position

3D-Globus wird geladen...

Nächste Überflüge

Höhenverlauf

Altitude vs Time

uPlot chart will show altitude changes over time

Zweizeiliger Elementsatz

1 48050U 21025J 26034.59984831 .00000056 00000-0 11658-3 0 9994
2 48050 87.9030 346.7053 0001731 73.4979 286.6340 13.13972257236061
Epoch: 3. Feb. 2026 • Age: 18 hours

Aktueller Status

Höhe 1222.3 km
Geschwindigkeit 7.24 km/s
Subsatellitenpunkt -37.14°S, 83.19°E
Startdatum 25. März 2021
Alter 4.8 years
Typ internet

Technische Details

Klassifizierung Payload
Masse 148.00 kg
Trockenmasse 140.00 kg
Gesamtmasse 148.00 kg
Länge 1.30 m
Durchmesser 1.00 m
Spannweite 5.00 m
Form Trapezoid+2 pan
Hersteller ONEWUS
Bus-Typ ARROW
Phasenstatus In Orbit
Besitzer/Staat ONEWEBN/UK

Große Konstellationen

Loading constellations...